Weather in Tumba

Russia / Republic of Karelia     63°14′58″N   32°01′49″E
temp.,
°C
wind,
m/s
gust,
m/s
humid.,
%
clouds,
%
prec.,
mm/h
press.,
hPa
HPBL,
m
4 march, thu
thu400:00−5nnw389589 0.3 998472
03:00−8nnw269694 0.4 1000154
06:00−8nnw2796100 0.1 1000259
09:00−9nw399697 0.2 1001285
12:00−7nw479083 0.0 1001393
15:00−6nw478787 0.1 1001690
18:00−7nw3891100 0.1 1002579
21:00−8nw399594 0.3 1002384
5 march, fri
fri500:00−9ne389089 0.3 1004422
03:00−14nnw228774 0.3 100620
06:00−14wnw268740 0.0 1007113
09:00−13nnw389660 0.0 1008268
12:00−9nnw258772 0.0 1010418
15:00−8nnw368680 0.1 1012754
18:00−9nnw3793100 0.4 1013315
21:00−13nw129467 0.5 101421
6 march, sat
sat600:00−14w229731 0.0 101521
03:00−15w229725 0.0 101421
06:00−15wsw249725 0.0 101384
09:00−14sw299624 0.0 1010212
12:00−9ssw5108772 0.0 1005503
15:00−7s7149186 0.2 999873
18:00−6s71493100 1.4 9911068
21:00−4ssw61395100 3.5 985791
7 march, sun
sun700:00−8wnw61378100 1.3 985764
03:00−14w3784100 1.3 986170
06:00−18wsw22910 0.0 98621
09:00−17w01920 0.0 98720
12:00−11nne24830 0.0 990316
15:00−9nnw24800 0.0 993647
18:00−11nne61191100 0.4 997810
21:00−14nne61389100 0.6 1000734
8 march, mon
mon800:00−15nne71488100 0.1 1003710
03:00−18nne61492100 0.1 1006547
06:00−20nne61495100 0.0 1009437
09:00−21nne51393100 0.0 1012415
12:00−17n5108886 0.0 1014423
15:00−15n498343 0.0 1016509
18:00−17n38900 0.0 1018322
21:00−21n23970 0.0 102074